EA4TN Weather Reports


time (UTC)temp
C
wind
direction
speed
KPH
gust
KPH
rain 1hr
cm
rain 24hr
cm
rain mn
cm
humidity
%
barometer
mb
20260831223515 24 0.0 0.0 0.00 0.00 0.00 38 1018.0
20260831222517 25 0.0 0.0 0.00 0.00 0.00 37 1018.1
20260831221557 25 0.0 0.0 0.00 0.00 0.00 36 1018.0
20260831220517 25 0.0 0.0 0.00 0.00 0.00 36 1018.0
20260831215517 25 0.0 0.0 0.00 0.00 0.00 36 1018.0
20260831214517 25 0.0 1.6 0.00 0.00 0.00 36 1017.9
20260831213517 25 18 1.6 4.8 0.00 0.00 0.00 36 1017.9
20260831212557 25 0.0 0.0 0.00 0.00 0.00 37 1017.9
20260831211517 26 0.0 0.0 0.00 0.00 0.00 37 1017.7
20260831210517 26 0.0 0.0 0.00 0.00 0.00 36 1017.6
20260831205517 26 0.0 0.0 0.00 0.00 0.00 35 1017.5
20260831204515 26 0.0 0.0 0.00 0.00 0.00 34 1017.4
20260831203515 26 0.0 0.0 0.00 0.00 0.00 34 1017.3
20260831202515 27 0.0 0.0 0.00 0.00 0.00 33 1017.3
20260831201516 27 0.0 0.0 0.00 0.00 0.00 32 1017.1
20260831200555 27 0.0 0.0 0.00 0.00 0.00 32 1016.9
20260831195515 28 0.0 0.0 0.00 0.00 0.00 31 1016.9
20260831194515 28 0.0 0.0 0.00 0.00 0.00 30 1016.7
20260831193515 28 0.0 0.0 0.00 0.00 0.00 30 1016.5
20260831192515 29 0.0 0.0 0.00 0.00 0.00 29 1016.5
20260831191515 30 0.0 1.6 0.00 0.00 0.00 28 1016.4
20260831190515 30 18 1.6 3.2 0.00 0.00 0.00 27 1016.4
20260831185515 30 18 1.6 4.8 0.00 0.00 0.00 26 1016.4
20260831184615 31 355 1.6 3.2 0.00 0.00 0.00 26 1016.4
20260831183515 32 353 1.6 4.8 0.00 0.00 0.00 24 1016.5
20260831182515 32 285 3.2 8.0 0.00 0.00 0.00 24 1016.5
20260831181515 32 270 1.6 4.8 0.00 0.00 0.00 24 1016.6
20260831180515 33 276 1.6 6.4 0.00 0.00 0.00 24 1016.7
20260831175515 33 275 3.2 4.8 0.00 0.00 0.00 23 1016.8
20260831174515 33 288 3.2 11.3 0.00 0.00 0.00 24 1016.8
20260831173555 33 287 4.8 9.7 0.00 0.00 0.00 23 1016.8
20260831172515 33 278 3.2 11.3 0.00 0.00 0.00 24 1016.8
20260831171515 33 262 4.8 9.7 0.00 0.00 0.00 23 1016.8
20260831170515 33 282 3.2 9.7 0.00 0.00 0.00 22 1016.9
20260831165515 33 270 6.4 14.5 0.00 0.00 0.00 23 1016.9
20260831164515 33 333 4.8 14.5 0.00 0.00 0.00 22 1017.0
20260831163515 33 296 3.2 9.7 0.00 0.00 0.00 22 1017.1
20260831162635 33 237 4.8 11.3 0.00 0.00 0.00 23 1017.2
20260831161555 33 225 4.8 12.9 0.00 0.00 0.00 23 1017.3
20260831160515 33 259 4.8 14.5 0.00 0.00 0.00 23 1017.4
20260831155515 33 269 8.0 19.3 0.00 0.00 0.00 23 1017.6
20260831154515 33 250 4.8 14.5 0.00 0.00 0.00 23 1017.6
20260831153515 33 276 9.7 19.3 0.00 0.00 0.00 23 1017.7
20260831152515 32 286 6.4 12.9 0.00 0.00 0.00 23 1017.7
20260831151515 32 265 6.4 17.7 0.00 0.00 0.00 23 1017.9
20260831150515 32 277 6.4 17.7 0.00 0.00 0.00 23 1018.0
20260831145515 32 268 9.7 20.9 0.00 0.00 0.00 23 1018.0
20260831144515 32 262 8.0 12.9 0.00 0.00 0.00 23 1018.0
20260831143515 32 225 6.4 17.7 0.00 0.00 0.00 23 1018.1
20260831142515 32 249 8.0 20.9 0.00 0.00 0.00 24 1018.2
20260831141516 32 264 6.4 19.3 0.00 0.00 0.00 24 1018.3
20260831140515 32 254 6.4 19.3 0.00 0.00 0.00 25 1018.4
20260831135516 32 273 8.0 16.1 0.00 0.00 0.00 25 1018.5
20260831134515 32 247 8.0 17.7 0.00 0.00 0.00 25 1018.6
20260831133555 32 271 4.8 11.3 0.00 0.00 0.00 26 1018.9
20260831132515 31 260 8.0 17.7 0.00 0.00 0.00 26 1019.0
20260831131515 31 258 3.2 16.1 0.00 0.00 0.00 27 1019.0
20260831130515 31 290 6.4 14.5 0.00 0.00 0.00 27 1019.0
20260831125515 31 213 3.2 12.9 0.00 0.00 0.00 29 1019.1
20260831124515 31 95 3.2 11.3 0.00 0.00 0.00 29 1019.1
20260831123515 31 131 4.8 14.5 0.00 0.00 0.00 30 1019.2
20260831121515 30 71 3.2 9.7 0.00 0.00 0.00 31 1019.4
20260831120555 30 108 4.8 12.9 0.00 0.00 0.00 30 1019.5
20260831115615 30 139 4.8 12.9 0.00 0.00 0.00 29 1019.7
20260831114555 30 203 6.4 16.1 0.00 0.00 0.00 30 1019.8
20260831113516 30 231 3.2 12.9 0.00 0.00 0.00 31 1020.0
20260831112515 30 231 3.2 11.3 0.00 0.00 0.00 31 1020.1
20260831111515 29 115 3.2 9.7 0.00 0.00 0.00 31 1020.2
20260831110515 29 265 3.2 9.7 0.00 0.00 0.00 32 1020.3
20260831105655 28 254 3.2 6.4 0.00 0.00 0.00 33 1020.4
20260831104516 28 262 3.2 11.3 0.00 0.00 0.00 34 1020.4
20260831103556 27 258 3.2 8.0 0.00 0.00 0.00 35 1020.5
20260831102516 27 307 3.2 6.4 0.00 0.00 0.00 35 1020.5
20260831101515 27 308 3.2 6.4 0.00 0.00 0.00 36 1020.5
20260831100515 26 347 1.6 6.4 0.00 0.00 0.00 36 1020.6
20260831095556 26 348 3.2 4.8 0.00 0.00 0.00 36 1020.4
20260831094515 26 60 1.6 6.4 0.00 0.00 0.00 37 1020.4
20260831093516 25 33 1.6 6.4 0.00 0.00 0.00 38 1020.4
20260831092516 25 32 4.8 11.3 0.00 0.00 0.00 38 1020.4
20260831091515 24 51 3.2 9.7 0.00 0.00 0.00 39 1020.3
20260831090516 24 70 4.8 9.7 0.00 0.00 0.00 40 1020.3
20260831085555 23 38 4.8 11.3 0.00 0.00 0.00 41 1020.2
20260831084515 23 38 6.4 11.3 0.00 0.00 0.00 42 1020.2
20260831083515 22 45 8.0 14.5 0.00 0.00 0.00 43 1020.2
20260831082515 22 40 6.4 14.5 0.00 0.00 0.00 45 1020.1
20260831081556 22 46 6.4 11.3 0.00 0.00 0.00 46 1020.1
20260831080516 21 39 6.4 16.1 0.00 0.00 0.00 48 1020.1
20260831075516 21 45 8.0 14.5 0.00 0.00 0.00 49 1019.9
20260831074516 21 49 8.0 14.5 0.00 0.00 0.00 49 1019.9
20260831073636 20 52 4.8 12.9 0.00 0.00 0.00 50 1019.8
20260831072516 20 57 6.4 12.9 0.00 0.00 0.00 52 1019.7
20260831071516 20 47 6.4 14.5 0.00 0.00 0.00 53 1019.7
20260831070555 19 49 8.0 12.9 0.00 0.00 0.00 54 1019.7
20260831065516 19 53 8.0 14.5 0.00 0.00 0.00 55 1019.6
20260831064515 19 55 4.8 9.7 0.00 0.00 0.00 55 1019.7
20260831063516 19 78 3.2 8.0 0.00 0.00 0.00 56 1019.8
20260831062516 18 73 3.2 9.7 0.00 0.00 0.00 57 1019.8
20260831061615 18 71 3.2 6.4 0.00 0.00 0.00 57 1019.7
20260831060515 18 76 3.2 6.4 0.00 0.00 0.00 57 1019.5
20260831055515 18 70 4.8 11.3 0.00 0.00 0.00 56 1019.4
20260831054556 18 61 3.2 9.7 0.00 0.00 0.00 56 1019.4
20260831053555 18 78 3.2 6.4 0.00 0.00 0.00 56 1019.4
20260831052516 18 58 3.2 8.0 0.00 0.00 0.00 56 1019.5
20260831051515 18 79 3.2 6.4 0.00 0.00 0.00 56 1019.4
20260831050516 18 82 1.6 4.8 0.00 0.00 0.00 56 1019.4
20260831045516 18 91 1.6 4.8 0.00 0.00 0.00 56 1019.4
20260831044556 18 77 1.6 6.4 0.00 0.00 0.00 56 1019.4
20260831043516 19 76 3.2 6.4 0.00 0.00 0.00 55 1019.4
20260831042516 19 77 3.2 6.4 0.00 0.00 0.00 55 1019.4
20260831041515 19 0.0 4.8 0.00 0.00 0.00 54 1019.4
20260831040556 19 78 3.2 4.8 0.00 0.00 0.00 53 1019.4
20260831035516 20 83 4.8 6.4 0.00 0.00 0.00 53 1019.3
20260831034516 20 60 4.8 9.7 0.00 0.00 0.00 52 1019.3
20260831033516 20 78 6.4 12.9 0.00 0.00 0.00 51 1019.2
20260831032516 20 49 6.4 11.3 0.00 0.00 0.00 52 1019.1
20260831031516 20 59 4.8 9.7 0.00 0.00 0.00 52 1019.1
20260831030515 20 51 3.2 6.4 0.00 0.00 0.00 52 1019.2
20260831025636 20 56 1.6 6.4 0.00 0.00 0.00 51 1019.2
20260831024516 20 46 3.2 6.4 0.00 0.00 0.00 51 1019.2
20260831023516 21 79 3.2 8.0 0.00 0.00 0.00 50 1019.2
20260831022516 21 77 3.2 8.0 0.00 0.00 0.00 51 1019.1
20260831021516 21 47 4.8 9.7 0.00 0.00 0.00 50 1019.0
20260831020516 21 53 4.8 9.7 0.00 0.00 0.00 50 1019.0
20260831015516 21 51 6.4 12.9 0.00 0.00 0.00 49 1019.1
20260831014516 21 52 6.4 11.3 0.00 0.00 0.00 48 1019.0
20260831013516 22 50 8.0 11.3 0.00 0.00 0.00 48 1018.9
20260831012516 22 46 4.8 6.4 0.00 0.00 0.00 47 1019.0
20260831011556 22 46 4.8 8.0 0.00 0.00 0.00 47 1019.0
20260831010516 22 45 4.8 8.0 0.00 0.00 0.00 47 1018.9
20260831005516 22 0.0 1.6 0.00 0.00 0.00 47 1019.0
20260831004516 22 239 1.6 3.2 0.00 0.00 0.00 47 1018.9
20260831003556 22 239 1.6 3.2 0.00 0.00 0.00 48 1018.8
20260831002516 21 0.0 0.0 0.00 0.00 0.00 48 1018.7
20260831001516 21 0.0 0.0 0.00 0.00 0.00 49 1018.7
20260831000556 21 0.0 0.0 0.00 0.00 0.00 49 1018.8
20260830235515 22 0.0 0.0 0.00 0.00 0.00 48 1018.8
20260830234515 22 0.0 0.0 0.00 0.00 0.00 47 1018.7
20260830233516 22 0.0 0.0 0.00 0.00 0.00 47 1018.6
20260830232516 22 0.0 0.0 0.00 0.00 0.00 47 1018.6
20260830231555 22 0.0 0.0 0.00 0.00 0.00 46 1018.7
20260830230516 22 0.0 0.0 0.00 0.00 0.00 46 1018.5
20260830225515 23 0.0 0.0 0.00 0.00 0.00 46 1018.4
20260830224515 23 0.0 0.0 0.00 0.00 0.00 44 1018.4